SV2SNY-2 Weather Reports


Display with metric or nautical units.
time (UTC)temp
F
wind
direction
speed
MPH
gust
MPH
rain 1hr
in
rain 24hr
in
rain mn
in
humidity
%
barometer
mb
20260510193834 70 0 0.0 0.0 0.00 0.00 0.00 19 1032.0
20260510193014 70 0 0.0 0.0 0.00 0.00 0.00 19 1032.0
20260510192154 70 0 0.0 0.0 0.00 0.00 0.00 19 1032.0
20260510191334 70 0 0.0 0.0 0.00 0.00 0.00 19 1032.0
20260510190514 70 0 0.0 0.0 0.00 0.00 0.00 19 1032.0
20260510185654 70 0 0.0 0.0 0.00 0.00 0.00 19 1032.0
20260510184833 71 0 0.0 0.0 0.00 0.00 0.00 17 1032.0
20260510184013 71 0 0.0 0.0 0.00 0.00 0.00 17 1032.0
20260510183154 71 0 0.0 0.0 0.00 0.00 0.00 17 1032.0
20260510182333 71 0 0.0 0.0 0.00 0.00 0.00 17 1032.0
20260510181513 71 0 0.0 0.0 0.00 0.00 0.00 17 1032.0
20260510180653 71 0 0.0 0.0 0.00 0.00 0.00 17 1032.0
20260510175832 72 0 0.0 0.0 0.00 0.00 0.00 16 1031.0
20260510175012 71 0 0.0 0.0 0.00 0.00 0.00 17 1031.0
20260510174152 71 0 0.0 0.0 0.00 0.00 0.00 17 1031.0
20260510173332 72 0 0.0 0.0 0.00 0.00 0.00 16 1031.0
20260510172512 72 0 0.0 0.0 0.00 0.00 0.00 16 1031.0
20260510171651 72 0 0.0 0.0 0.00 0.00 0.00 16 1031.0
20260510170831 72 0 0.0 0.0 0.00 0.00 0.00 16 1031.0
20260510170011 72 0 0.0 0.0 0.00 0.00 0.00 16 1031.0
20260510165151 72 0 0.0 0.0 0.00 0.00 0.00 16 1031.0
20260510164331 72 0 0.0 0.0 0.00 0.00 0.00 16 1031.0
20260510163510 72 0 0.0 0.0 0.00 0.00 0.00 16 1031.0
20260510162650 72 0 0.0 0.0 0.00 0.00 0.00 16 1031.0
20260510161830 73 0 0.0 0.0 0.00 0.00 0.00 16 1031.0
20260510161010 73 0 0.0 0.0 0.00 0.00 0.00 16 1031.0
20260510160150 73 0 0.0 0.0 0.00 0.00 0.00 16 1031.0
20260510155330 73 0 0.0 0.0 0.00 0.00 0.00 19 1031.0
20260510154509 73 0 0.0 0.0 0.00 0.00 0.00 18 1031.0
20260510153649 74 0 0.0 0.0 0.00 0.00 0.00 18 1031.0
20260510152829 74 0 0.0 0.0 0.00 0.00 0.00 16 1031.0
20260510152009 74 0 0.0 0.0 0.00 0.00 0.00 16 1031.0
20260510151149 73 0 0.0 0.0 0.00 0.00 0.00 18 1031.0
20260510150328 74 0 0.0 0.0 0.00 0.00 0.00 18 1032.0
20260510145508 74 0 0.0 0.0 0.00 0.00 0.00 18 1032.0
20260510144648 74 0 0.0 0.0 0.00 0.00 0.00 18 1032.0
20260510143828 74 0 0.0 0.0 0.00 0.00 0.00 16 1032.0
20260510143008 74 0 0.0 0.0 0.00 0.00 0.00 18 1031.0
20260510142147 74 0 0.0 0.0 0.00 0.00 0.00 18 1031.0
20260510141327 74 0 0.0 0.0 0.00 0.00 0.00 18 1031.0
20260510140507 74 0 0.0 0.0 0.00 0.00 0.00 18 1031.1
20260510135647 74 0 0.0 0.0 0.00 0.00 0.00 21 1032.0
20260510134827 75 0 0.0 0.0 0.00 0.00 0.00 18 1032.0
20260510134007 75 0 0.0 0.0 0.00 0.00 0.00 18 1032.0
20260510133146 76 0 0.0 0.0 0.00 0.00 0.00 15 1032.0
20260510132326 75 0 0.0 0.0 0.00 0.00 0.00 15 1032.0
20260510131506 75 0 0.0 0.0 0.00 0.00 0.00 15 1032.0
20260510130646 75 0 0.0 0.0 0.00 0.00 0.00 15 1032.0
20260510125826 75 0 0.0 0.0 0.00 0.00 0.00 15 1032.0
20260510125006 76 0 0.0 0.0 0.00 0.00 0.00 15 1032.0
20260510124145 76 0 0.0 0.0 0.00 0.00 0.00 15 1032.0
20260510123325 76 0 0.0 0.0 0.00 0.00 0.00 15 1032.0
20260510122505 75 0 0.0 0.0 0.00 0.00 0.00 15 1032.0
20260510121645 76 0 0.0 0.0 0.00 0.00 0.00 15 1033.0
20260510120825 76 0 0.0 0.0 0.00 0.00 0.00 15 1033.0
20260510120004 77 0 0.0 0.0 0.00 0.00 0.00 15 1033.0
20260510115144 76 0 0.0 0.0 0.00 0.00 0.00 15 1033.0
20260510114324 76 0 0.0 0.0 0.00 0.00 0.00 18 1033.0
20260510113504 76 0 0.0 0.0 0.00 0.00 0.00 18 1033.0
20260510112644 76 0 0.0 0.0 0.00 0.00 0.00 15 1033.0
20260510111823 76 0 0.0 0.0 0.00 0.00 0.00 15 1033.0
20260510111003 76 0 0.0 0.0 0.00 0.00 0.00 15 1033.0
20260510110143 76 0 0.0 0.0 0.00 0.00 0.00 15 1033.0
20260510105323 77 0 0.0 0.0 0.00 0.00 0.00 15 1033.0
20260510104503 77 0 0.0 0.0 0.00 0.00 0.00 15 1033.0
20260510103642 78 0 0.0 0.0 0.00 0.00 0.00 15 1033.0
20260510102822 77 0 0.0 0.0 0.00 0.00 0.00 15 1033.0
20260510102002 76 0 0.0 0.0 0.00 0.00 0.00 15 1033.0
20260510101142 77 0 0.0 0.0 0.00 0.00 0.00 15 1033.0
20260510100322 77 0 0.0 0.0 0.00 0.00 0.00 15 1033.0
20260510095502 77 0 0.0 0.0 0.00 0.00 0.00 15 1033.0
20260510094641 76 0 0.0 0.0 0.00 0.00 0.00 15 1033.0
20260510093821 77 0 0.0 0.0 0.00 0.00 0.00 15 1033.0
20260510093001 77 0 0.0 0.0 0.00 0.00 0.00 15 1034.0
20260510092141 76 0 0.0 0.0 0.00 0.00 0.00 15 1034.0
20260510091320 77 0 0.0 0.0 0.00 0.00 0.00 15 1033.0
20260510090500 76 0 0.0 0.0 0.00 0.00 0.00 15 1033.5
20260510085640 77 0 0.0 0.0 0.00 0.00 0.00 15 1034.0
20260510084820 76 0 0.0 0.0 0.00 0.00 0.00 15 1033.0
20260510084000 76 0 0.0 0.0 0.00 0.00 0.00 15 1033.0
20260510083140 76 0 0.0 0.0 0.00 0.00 0.00 15 1034.0
20260510082320 76 0 0.0 0.0 0.00 0.00 0.00 15 1034.0
20260510081459 75 0 0.0 0.0 0.00 0.00 0.00 15 1034.0
20260510080639 76 0 0.0 0.0 0.00 0.00 0.00 15 1034.0
20260510075819 76 0 0.0 0.0 0.00 0.00 0.00 15 1034.0
20260510074959 76 0 0.0 0.0 0.00 0.00 0.00 15 1034.0
20260510074139 75 0 0.0 0.0 0.00 0.00 0.00 15 1034.0
20260510073319 75 0 0.0 0.0 0.00 0.00 0.00 16 1034.0
20260510072458 74 0 0.0 0.0 0.00 0.00 0.00 16 1034.0
20260510071638 74 0 0.0 0.0 0.00 0.00 0.00 16 1034.0
20260510070818 73 0 0.0 0.0 0.00 0.00 0.00 16 1034.0
20260510065958 74 0 0.0 0.0 0.00 0.00 0.00 16 1034.0
20260510065138 73 0 0.0 0.0 0.00 0.00 0.00 16 1034.0
20260510064317 72 0 0.0 0.0 0.00 0.00 0.00 16 1034.0
20260510063457 73 0 0.0 0.0 0.00 0.00 0.00 16 1034.0
20260510062637 73 0 0.0 0.0 0.00 0.00 0.00 16 1034.0
20260510061816 72 0 0.0 0.0 0.00 0.00 0.00 16 1034.0
20260510060956 72 0 0.0 0.0 0.00 0.00 0.00 16 1034.0
20260510060136 72 0 0.0 0.0 0.00 0.00 0.00 19 1034.0
20260510055316 71 0 0.0 0.0 0.00 0.00 0.00 19 1034.0
20260510054456 72 0 0.0 0.0 0.00 0.00 0.00 19 1034.0
20260510053636 70 0 0.0 0.0 0.00 0.00 0.00 19 1034.0
20260510052815 69 0 0.0 0.0 0.00 0.00 0.00 20 1034.0
20260510051955 68 0 0.0 0.0 0.00 0.00 0.00 23 1034.0
20260510051135 67 0 0.0 0.0 0.00 0.00 0.00 23 1034.0
20260510050315 66 0 0.0 0.0 0.00 0.00 0.00 24 1034.0
20260510045455 66 0 0.0 0.0 0.00 0.00 0.00 25 1034.0
20260510044634 65 0 0.0 0.0 0.00 0.00 0.00 25 1034.0
20260510043814 65 0 0.0 0.0 0.00 0.00 0.00 25 1034.0
20260510042954 65 0 0.0 0.0 0.00 0.00 0.00 24 1034.0
20260510042134 66 0 0.0 0.0 0.00 0.00 0.00 24 1034.0
20260510041314 66 0 0.0 0.0 0.00 0.00 0.00 23 1034.0
20260510040454 66 0 0.0 0.0 0.00 0.00 0.00 23 1034.0
20260510035633 66 0 0.0 0.0 0.00 0.00 0.00 23 1034.0
20260510034813 66 0 0.0 0.0 0.00 0.00 0.00 23 1033.0
20260510033953 66 0 0.0 0.0 0.00 0.00 0.00 23 1033.0
20260510033133 66 0 0.0 0.0 0.00 0.00 0.00 23 1033.0
20260510032312 66 0 0.0 0.0 0.00 0.00 0.00 23 1033.0
20260510031452 66 0 0.0 0.0 0.00 0.00 0.00 23 1033.0
20260510030632 66 0 0.0 0.0 0.00 0.00 0.00 23 1033.0
20260510025812 66 0 0.0 0.0 0.00 0.00 0.00 23 1033.0
20260510024952 66 0 0.0 0.0 0.00 0.00 0.00 23 1033.0
20260510024132 66 0 0.0 0.0 0.00 0.00 0.00 23 1033.0
20260510023311 66 0 0.0 0.0 0.00 0.00 0.00 23 1033.0
20260510022451 66 0 0.0 0.0 0.00 0.00 0.00 23 1033.0
20260510021631 66 0 0.0 0.0 0.00 0.00 0.00 23 1033.0
20260510020810 66 0 0.0 0.0 0.00 0.00 0.00 23 1033.0
20260510015950 66 0 0.0 0.0 0.00 0.00 0.00 23 1033.0
20260510015130 66 0 0.0 0.0 0.00 0.00 0.00 23 1033.0
20260510013700 66 0 0.0 0.0 0.00 0.00 0.00 24 1033.0
20260510012840 66 0 0.0 0.0 0.00 0.00 0.00 24 1033.0
20260510012020 66 0 0.0 0.0 0.00 0.00 0.00 24 1033.0
20260510011159 67 0 0.0 0.0 0.00 0.00 0.00 24 1033.0
20260510010339 67 0 0.0 0.0 0.00 0.00 0.00 25 1033.0
20260510005519 67 0 0.0 0.0 0.00 0.00 0.00 25 1033.0
20260510004659 66 0 0.0 0.0 0.00 0.00 0.00 28 1033.0
20260510003839 66 0 0.0 0.0 0.00 0.00 0.00 34 1033.0
20260510003018 67 0 0.0 0.0 0.00 0.00 0.00 38 1033.0
20260510002158 67 0 0.0 0.0 0.00 0.00 0.00 38 1033.0
20260510001338 67 0 0.0 0.0 0.00 0.00 0.00 38 1033.0
20260510000518 67 0 0.0 0.0 0.00 0.00 0.00 38 1033.0
20260509235658 67 0 0.0 0.0 0.00 0.00 0.00 39 1033.0
20260509234837 67 0 0.0 0.0 0.00 0.00 0.00 39 1033.0
20260509234017 67 0 0.0 0.0 0.00 0.00 0.00 39 1033.0
20260509233157 67 0 0.0 0.0 0.00 0.00 0.00 39 1034.0
20260509232337 67 0 0.0 0.0 0.00 0.00 0.00 39 1034.0
20260509231517 67 0 0.0 0.0 0.00 0.00 0.00 39 1034.0
20260509230656 68 0 0.0 0.0 0.00 0.00 0.00 39 1034.0
20260509225836 68 0 0.0 0.0 0.00 0.00 0.00 38 1034.0
20260509225016 68 0 0.0 0.0 0.00 0.00 0.00 39 1034.0
20260509224156 68 0 0.0 0.0 0.00 0.00 0.00 39 1034.0
20260509223336 69 0 0.0 0.0 0.00 0.00 0.00 39 1034.0
20260509222515 69 0 0.0 0.0 0.00 0.00 0.00 39 1034.0
20260509221655 69 0 0.0 0.0 0.00 0.00 0.00 39 1034.0
20260509220835 69 0 0.0 0.0 0.00 0.00 0.00 39 1034.0
20260509220015 69 0 0.0 0.0 0.00 0.00 0.00 40 1034.0
20260509215154 69 0 0.0 0.0 0.00 0.00 0.00 39 1034.0
20260509214334 69 0 0.0 0.0 0.00 0.00 0.00 39 1034.0
20260509213514 69 0 0.0 0.0 0.00 0.00 0.00 40 1034.0
20260509212654 69 0 0.0 0.0 0.00 0.00 0.00 40 1034.0
20260509211834 69 0 0.0 0.0 0.00 0.00 0.00 40 1034.0
20260509211014 69 0 0.0 0.0 0.00 0.00 0.00 40 1034.0
20260509210153 69 0 0.0 0.0 0.00 0.00 0.00 38 1034.0
20260509205333 69 0 0.0 0.0 0.00 0.00 0.00 36 1034.0
20260509204513 69 0 0.0 0.0 0.00 0.00 0.00 36 1034.0
20260509203653 69 0 0.0 0.0 0.00 0.00 0.00 35 1034.0
20260509202833 69 0 0.0 0.0 0.00 0.00 0.00 35 1033.0
20260509202013 69 0 0.0 0.0 0.00 0.00 0.00 34 1033.0
20260509201152 69 0 0.0 0.0 0.00 0.00 0.00 33 1033.0
20260509200332 69 0 0.0 0.0 0.00 0.00 0.00 32 1033.0
20260509195512 69 0 0.0 0.0 0.00 0.00 0.00 32 1033.0
20260509194652 69 0 0.0 0.0 0.00 0.00 0.00 32 1033.0